Regional Weather Roundup
Issued by NWS

Home | Current Version | Previous Version | Text Only | Print | Product List | Glossary Off
Versions: 1 2 3 4 5 6 7 8 9 10 11 12 13 14 15 16 17 18 19 20 21 22 23 24 25 26 27 28 29 30 31 32 33 34 35 36 37 38 39 40 41 42 43 44 45 46 47 48 49 50

000
ASUS45 KCYS 241910
RWRWY

WYOMING REGIONAL WEATHER ROUNDUP
NATIONAL WEATHER SERVICE CHEYENNE WY
1200 PM MST SAT JAN 24 2015

NOTE:  "FAIR" INDICATES FEW OR NO CLOUDS BELOW 12,000 FEET
WITH NO SIGNIFICANT WEATHER AND/OR OBSTRUCTIONS TO VISIBILITY.

WYZ001-242000-
YELLOWSTONE NATIONAL PARK

CITY           SKY/WX    TMP DP  RH WIND       PRES   REMARKS
LK YELLOWSTONE   N/A     27  20  75 VRB3      30.30F
W YELLOWSTONE  NOT AVBL

$$
WYZ002>013-054>058-071-098>099-242000-
NORTHERN WYOMING

CITY           SKY/WX    TMP DP  RH WIND       PRES   REMARKS
JACKSON        CLOUDY    18  16  93 CALM      30.38F
CODY           PTSUNNY   46  25  42 W14G22    30.07R
GREYBULL       CLOUDY    32  24  72 E6        30.10F WCI  26
WORLAND        CLOUDY    28  22  78 CALM      30.07F
SHERIDAN       CLOUDY    46  30  53 NW22      29.94S
BUFFALO        LGT RAIN  50  32  50 NW22G33   29.97R
GILLETTE       CLOUDY    46  32  58 NW16      29.91F
HULETT           N/A    N/A N/A N/A MISG        N/A
NEWCASTLE      DRIZZLE   37  30  75 CALM      29.91F

$$
WYZ014>020-022>026-101>103-242000-
CENTRAL WYOMING

CITY           SKY/WX    TMP DP  RH WIND       PRES   REMARKS
BIG PINEY      FAIR      27  16  63 SE8       30.27F WCI  19
PINEDALE       FAIR      34  25  69 W14       30.26F WCI  24
DUBOIS         FAIR      41  28  60 NW20G29   30.18F
LANDER         FAIR      38  22  52 CALM      30.11F
RIVERTON       PTSUNNY   35  23  61 SW12      30.11F WCI  27
CASPER         CLOUDY    35  21  56 SW28G35   30.06F WCI  22
DOUGLAS        CLOUDY    47  24  40 W24G35    29.99F

$$
WYZ021-027>030-104>119-242000-
SOUTHERN WYOMING

CITY           SKY/WX    TMP DP  RH WIND       PRES   REMARKS
EVANSTON       FAIR      29  21  72 SW12      30.40F WCI  19
FORT BRIDGER   MOCLDY    35  22  60 W21G28    30.38F WCI  23
ROCK SPRINGS   PTSUNNY   33  18  53 SW24G38   30.28F WCI  20
DIXON          FAIR      26  15  62 CALM      30.35F
RAWLINS        FAIR      32  17  54 W25G39    30.20F WCI  19
SARATOGA       CLOUDY    34  18  51 SW15G21   30.24F WCI  24
LARAMIE        CLOUDY    42  15  33 W12       30.10F
CHEYENNE       FAIR      46  14  27 W28G40    30.00F
TORRINGTON     PTSUNNY   45  24  43 W17G26    29.97S
PINE BLUFFS    FAIR      46  19  34 NW33G44   29.97F

$$


USA.gov is the U.S. government's official web portal to all federal, state and local government web resources and services.